WESTFORD NEEDLES, 2997

Orbit data source: Space-Track

WESTFORD NEEDLES, 2997 is space debris in LEO originally from a launch on Thu, 09 May 1963 UTC launched from the Air Force Western Test Range (AFWTR). Debris objects in space refer to the collection of defunct objects orbiting the Earth. Examples of debris include non-operational satellites, rocket bodies, and fragments generated from explosions, collisions, or faulty payload assembly.

Loading next visibility...
Identifier
2997, 1963-014AU
Orbit
LEO
Country
Flag of USUS
Related business
Manufacturer
Unknown
Mission
Spacecraft
Bus & Motor
Unknown
Mass
Unknown
Launch date (UTC)
1963-05-09 (63 years ago)
Launch vehicle
Unknown
Launch site
Air Force Western Test Range (AFWTR)
Object type
Payload
Rocket body
Debris
Shape & HBR
Unknown shape, 0.3 m
Radar Cross Section
Medium (>0.1 m² and <1 m²)

Expand to show TLE details & history
Last TLE update: 1 day ago

TLE from 1 day ago
0 WESTFORD NEEDLES
1 02997U 63014AU  26062.29716462  .00000847  00000-0  22767+0 0  9996
2 02997  86.7568 177.8638 0908168 356.9755   2.5859  8.77868229307175
Epoch: 2026-03-03T07:07Z
TLE epoch observation values (Epoch: 2026-03-03T07:07:55.023Z)
Latitude
0.00001°
Longitude
-90.19371°
Altitude
2,649.82 km
Speed
6.94 km/s
True Right ascension
11h 51m 27s
True Declination
0° 00' 00"
Sunlit
Object was in full shadow at epoch
Visualization orbit readout
Latitude
Unknown
Longitude
Unknown
Altitude
Unknown
Speed
Unknown
Apparent Right ascension
Unknown
Apparent Declination
Unknown
Sunlit
N/A
Visualization observer readout
Local Sidereal Time
17:45:37
Azimuth
Unknown
Elevation
Unknown
Doppler factor
Unknown
Orbital elements
Apogee altitude
4,447.091 km
Perigee altitude
2,644.565 km
Semi-major axis
9,923.965 km
Eccentricity
0.09082
Inclination
86.7568°
RAAN
177.8638°
Arg. of periapsis
356.9755°
True anomaly
3.11512°
Mean anomaly
2.5859°
Eccentric anomaly
2.84408°
Mean motion
2.19541 °/min
Orbital period
163.98 mins
BSTAR
0.22767
Loading maneuver chart data...
Computing Atmospheric mass density...

Documentation

Showing up to 5 results
|